Location: Ash Swamp
(41.5170°N, 74.6157°W)
Time: 02:33:50
(UTC+00:00)

Spot 4 - Pass Details

Date: 14 July 2020
Orbit: 705 x 722 km, 98.3° (Epoch: 14 August)

Event Time Altitude Azimuth Distance (km) Brightness Sun altitude
Exits shadow 03:34:46 47° 92° (E) 928 4.2 -23.5°
Maximum altitude 03:35:15 49° 72° (ENE) 905 4.3 -23.6°
Drops below altitude 10° 03:39:51 10° 358° (N) 2,184 7.3 -23.9°
Sets 03:42:10 0° 353° (N) 3,106 8.4 -24.1°
